contact:dominique.lefevre@mio.osupytheas.fr, maurice.libes@osupytheas.fr, didier.mallarino@osupytheas.fr
Project:EMSO http://www.emso-fr.org/EMSO-France
Depth: 2436.0 m
Title:EMSO Ligure Ouest : Data MII capteur AQUADOPP
Date,Latitude,Longitude,X_East,Y_North,Z_Up,Amplitude_X,Amplitude_Y,Amplitude_Z,Batterie,SoundSpeed,Heading,Pitch,Roll,Pressure,TIS,Speed,Direction
, degrees North, degrees East, m.s-1, m.s-1,m.s-1, 1, 1, 1, Volt, m.s-1, degree, degree, degree, dbar, degree_C, m.s-1, degree
2021-06-13T00:04:03,42.805,6.029,0.018,-0.008,0.003,103.0,103.0,101.0,13.4,1505.2,327.3,-0.7,1.8,2470.559,13.28,0.019,114.0
2021-06-13T00:07:03,42.805,6.029,0.003,-0.021,-0.001,103.0,104.0,101.0,13.4,1505.2,329.5,-0.7,1.8,2470.548,13.28,0.021,171.9
2021-06-13T00:10:03,42.805,6.029,0.016,-0.011,0.008,105.0,104.0,100.0,13.4,1505.2,325.1,-0.7,1.8,2470.586,13.28,0.019,124.5
2021-06-13T00:13:03,42.805,6.029,0.006,-0.018,-0.002,103.0,103.0,102.0,13.3,1505.2,328.7,-0.7,1.9,2470.572,13.28,0.018,161.6
2021-06-13T00:16:03,42.805,6.029,0.013,-0.013,0.006,103.0,103.0,102.0,13.4,1505.2,327.5,-0.8,1.8,2470.581,13.28,0.018,135.0
2021-06-13T00:19:03,42.805,6.029,0.001,-0.005,0.013,103.0,105.0,101.0,13.3,1505.2,325.1,-0.7,1.8,2470.606,13.28,0.005,168.7
2021-06-13T00:22:03,42.805,6.029,0.017,-0.016,0.0,104.0,103.0,102.0,13.3,1505.2,326.7,-0.8,1.8,2470.611,13.28,0.023,133.3
2021-06-13T00:25:03,42.805,6.029,0.032,-0.015,-0.006,104.0,104.0,101.0,13.4,1505.2,324.8,-0.8,1.9,2470.576,13.28,0.035,115.1
2021-06-13T00:28:03,42.805,6.029,0.002,-0.014,-0.001,103.0,103.0,102.0,13.3,1505.2,327.0,-0.7,1.8,2470.596,13.28,0.014,171.9
2021-06-13T00:31:03,42.805,6.029,0.004,-0.023,-0.005,104.0,102.0,101.0,13.4,1505.2,329.2,-0.8,1.9,2470.557,13.28,0.023,170.1
2021-06-13T00:34:03,42.805,6.029,0.011,-0.004,-0.011,103.0,105.0,101.0,13.4,1505.2,327.6,-0.8,1.8,2470.594,13.28,0.011,110.0
2021-06-13T00:37:03,42.805,6.029,0.015,-0.002,0.008,105.0,104.0,102.0,13.4,1505.2,328.4,-0.8,1.8,2470.564,13.28,0.015,97.6
2021-06-13T00:40:03,42.805,6.029,0.017,-0.018,0.005,104.0,104.0,102.0,13.3,1505.2,326.5,-0.8,1.8,2470.587,13.28,0.024,136.6
2021-06-13T00:43:03,42.805,6.029,-0.018,-0.031,-0.025,103.0,105.0,102.0,13.3,1505.2,327.8,-0.8,1.8,2470.556,13.28,0.035,210.1
2021-06-13T00:46:03,42.805,6.029,0.015,-0.006,0.017,103.0,105.0,101.0,13.4,1505.2,326.1,-0.8,1.8,2470.554,13.28,0.016,111.8
2021-06-13T00:49:03,42.805,6.029,0.033,-0.009,-0.001,102.0,103.0,103.0,13.4,1505.2,327.2,-0.8,1.8,2470.526,13.28,0.034,105.3
2021-06-13T00:52:03,42.805,6.029,0.022,-0.01,-0.016,104.0,103.0,101.0,13.4,1505.2,326.1,-0.7,1.8,2470.565,13.28,0.024,114.4
2021-06-13T00:55:03,42.805,6.029,0.007,0.005,0.028,103.0,105.0,102.0,13.4,1505.2,327.9,-0.8,1.8,2470.563,13.28,0.008,54.5
2021-06-13T00:58:03,42.805,6.029,0.03,-0.04,0.029,104.0,103.0,101.0,13.4,1505.2,326.3,-0.7,1.8,2470.552,13.28,0.05,143.1
2021-06-13T01:04:03,42.805,6.029,0.014,-0.029,-0.026,104.0,104.0,100.0,13.3,1505.2,328.8,-0.8,1.8,2470.557,13.28,0.032,154.2
2021-06-13T01:07:03,42.805,6.029,0.017,-0.02,-0.022,104.0,103.0,101.0,13.3,1505.2,326.0,-0.8,1.8,2470.567,13.28,0.026,139.6
2021-06-13T01:10:03,42.805,6.029,0.009,-0.007,0.022,102.0,104.0,101.0,13.4,1505.2,329.5,-0.7,1.8,2470.569,13.28,0.011,127.9
2021-06-13T01:13:03,42.805,6.029,0.009,-0.014,-0.004,102.0,104.0,103.0,13.4,1505.2,328.6,-0.8,1.8,2470.589,13.28,0.016,147.3
2021-06-13T01:16:03,42.805,6.029,-0.018,-0.032,-0.014,103.0,105.0,101.0,13.4,1505.2,326.8,-0.7,1.8,2470.576,13.28,0.036,209.4
2021-06-13T01:19:03,42.805,6.029,0.01,-0.026,0.029,102.0,105.0,102.0,13.3,1505.2,326.9,-0.7,1.8,2470.56,13.28,0.027,159.0
2021-06-13T01:22:03,42.805,6.029,0.008,-0.016,0.014,105.0,103.0,102.0,13.4,1505.2,326.9,-0.8,1.9,2470.555,13.28,0.017,153.4
2021-06-13T01:25:03,42.805,6.029,0.01,-0.028,-0.006,104.0,104.0,101.0,13.4,1505.2,327.5,-0.7,1.8,2470.498,13.28,0.029,160.4
2021-06-13T01:28:03,42.805,6.029,0.011,-0.01,0.024,103.0,104.0,102.0,13.4,1505.2,330.0,-0.7,1.8,2470.562,13.28,0.014,132.3
2021-06-13T01:31:03,42.805,6.029,0.012,-0.027,0.014,104.0,104.0,101.0,13.3,1505.2,326.5,-0.7,1.8,2470.6,13.28,0.029,156.0
2021-06-13T01:34:03,42.805,6.029,0.013,-0.032,-0.025,102.0,103.0,102.0,13.4,1505.2,329.8,-0.7,1.8,2470.504,13.28,0.034,157.9
2021-06-13T01:37:03,42.805,6.029,0.001,-0.006,0.012,105.0,103.0,102.0,13.4,1505.2,327.2,-0.7,1.8,2470.54,13.28,0.006,170.5
2021-06-13T01:40:03,42.805,6.029,0.009,-0.02,0.0,102.0,104.0,102.0,13.3,1505.2,329.8,-0.8,1.8,2470.556,13.28,0.021,155.8
2021-06-13T01:43:03,42.805,6.029,0.009,-0.031,-0.006,104.0,103.0,101.0,13.4,1505.2,324.4,-0.7,1.8,2470.529,13.28,0.032,163.8
2021-06-13T01:46:03,42.805,6.029,0.015,-0.017,0.014,104.0,102.0,101.0,13.4,1505.2,327.8,-0.8,1.9,2470.528,13.28,0.022,138.6
2021-06-13T01:49:03,42.805,6.029,0.0,-0.007,-0.007,104.0,103.0,101.0,13.4,1505.2,327.3,-0.7,1.8,2470.501,13.28,0.007,180.0
2021-06-13T01:52:03,42.805,6.029,0.005,0.0,-0.005,103.0,103.0,101.0,13.4,1505.2,327.2,-0.8,1.8,2470.576,13.28,0.005,90.0
2021-06-13T01:55:03,42.805,6.029,0.032,-0.012,0.025,104.0,108.0,102.0,13.4,1505.2,325.3,-0.7,1.8,2470.532,13.28,0.034,110.6
2021-06-13T01:58:03,42.805,6.029,0.004,-0.013,0.024,104.0,103.0,102.0,13.3,1505.2,327.0,-0.8,1.8,2470.529,13.28,0.013,162.9
2021-06-13T02:04:03,42.805,6.029,0.02,-0.034,-0.013,103.0,104.0,102.0,13.4,1505.2,328.8,-0.7,1.8,2470.563,13.28,0.039,149.5
2021-06-13T02:07:03,42.805,6.029,0.018,-0.014,-0.02,103.0,104.0,102.0,13.4,1505.2,327.6,-0.8,1.8,2470.553,13.28,0.022,127.9
2021-06-13T02:10:03,42.805,6.029,0.017,-0.002,0.002,103.0,104.0,101.0,13.4,1505.2,328.3,-0.7,1.8,2470.537,13.28,0.017,96.7
2021-06-13T02:13:03,42.805,6.029,0.029,-0.023,-0.014,104.0,103.0,101.0,13.4,1505.2,326.3,-0.8,1.8,2470.558,13.28,0.037,128.4
2021-06-13T02:16:03,42.805,6.029,0.015,-0.008,-0.002,103.0,107.0,103.0,13.4,1505.2,330.3,-0.7,1.8,2470.545,13.28,0.017,118.1
2021-06-13T02:19:03,42.805,6.029,-0.014,-0.006,-0.001,105.0,104.0,101.0,13.4,1505.2,328.3,-0.8,1.8,2470.538,13.28,0.015,246.8
2021-06-13T02:22:03,42.805,6.029,0.022,-0.028,-0.029,105.0,103.0,102.0,13.4,1505.2,326.8,-0.7,1.8,2470.537,13.28,0.035,141.8
2021-06-13T02:25:03,42.805,6.029,-0.001,-0.033,-0.01,104.0,103.0,101.0,13.4,1505.2,326.0,-0.7,1.8,2470.542,13.28,0.033,181.7
2021-06-13T02:28:03,42.805,6.029,-0.001,-0.025,-0.015,103.0,104.0,100.0,13.4,1505.2,325.6,-0.8,1.8,2470.549,13.28,0.025,182.3
2021-06-13T02:31:03,42.805,6.029,0.014,-0.024,0.005,104.0,103.0,102.0,13.4,1505.2,326.9,-0.7,1.8,2470.483,13.28,0.027,149.7
2021-06-13T02:34:03,42.805,6.029,-0.008,-0.002,0.003,103.0,104.0,101.0,13.4,1505.2,325.9,-0.8,1.9,2470.53,13.28,0.008,256.0
2021-06-13T02:37:03,42.805,6.029,0.014,-0.001,0.027,104.0,104.0,101.0,13.4,1505.2,324.9,-0.7,1.8,2470.515,13.28,0.014,94.1
2021-06-13T02:40:03,42.805,6.029,0.023,-0.007,0.021,103.0,103.0,102.0,13.4,1505.2,326.4,-0.8,1.8,2470.513,13.28,0.024,106.9
2021-06-13T02:43:03,42.805,6.029,0.011,-0.004,0.01,103.0,103.0,101.0,13.3,1505.2,324.8,-0.7,1.8,2470.521,13.28,0.011,110.0
2021-06-13T02:46:03,42.805,6.029,0.03,-0.004,0.006,102.0,103.0,102.0,13.3,1505.2,326.8,-0.7,1.9,2470.545,13.28,0.03,97.6
2021-06-13T02:49:03,42.805,6.029,0.002,-0.016,-0.013,105.0,104.0,100.0,13.4,1505.2,329.6,-0.8,1.8,2470.536,13.28,0.016,172.9
2021-06-13T02:52:03,42.805,6.029,0.028,-0.023,0.007,103.0,103.0,102.0,13.3,1505.2,325.3,-0.8,1.8,2470.52,13.28,0.036,129.4
2021-06-13T02:55:03,42.805,6.029,0.026,-0.026,0.022,104.0,103.0,100.0,13.4,1505.2,326.5,-0.7,1.8,2470.504,13.28,0.036,135.0
2021-06-13T02:58:03,42.805,6.029,0.008,-0.036,0.017,103.0,105.0,101.0,13.4,1505.2,329.6,-0.8,1.9,2470.517,13.28,0.036,167.5
2021-06-13T03:04:03,42.805,6.029,0.0,-0.022,-0.012,103.0,103.0,101.0,13.4,1505.2,329.6,-0.7,1.8,2470.509,13.28,0.022,180.0
2021-06-13T03:07:03,42.805,6.029,0.032,-0.017,0.03,104.0,103.0,102.0,13.4,1505.2,329.4,-0.7,1.8,2470.5,13.28,0.036,118.0
2021-06-13T03:10:03,42.805,6.029,0.001,-0.028,0.002,103.0,104.0,102.0,13.4,1505.2,329.1,-0.8,1.8,2470.492,13.28,0.028,178.0
2021-06-13T03:13:03,42.805,6.029,0.02,-0.034,-0.002,104.0,104.0,101.0,13.3,1505.2,329.2,-0.8,1.8,2470.502,13.28,0.039,149.5
2021-06-13T03:16:03,42.805,6.029,0.023,-0.015,0.023,103.0,103.0,101.0,13.4,1505.2,328.2,-0.8,1.8,2470.492,13.28,0.027,123.1
2021-06-13T03:19:03,42.805,6.029,-0.001,-0.031,0.0,102.0,103.0,101.0,13.3,1505.2,327.3,-0.8,1.9,2470.569,13.28,0.031,181.8
2021-06-13T03:22:03,42.805,6.029,0.008,-0.021,-0.018,104.0,104.0,101.0,13.4,1505.2,329.4,-0.8,1.8,2470.477,13.28,0.022,159.1
2021-06-13T03:25:03,42.805,6.029,-0.003,0.001,0.009,104.0,105.0,100.0,13.3,1505.2,326.4,-0.8,1.8,2470.508,13.28,0.003,288.4
2021-06-13T03:28:03,42.805,6.029,0.02,-0.026,-0.011,104.0,103.0,101.0,13.4,1505.2,325.4,-0.8,1.8,2470.521,13.28,0.032,142.4
2021-06-13T03:31:03,42.805,6.029,0.004,-0.003,-0.011,103.0,104.0,102.0,13.4,1505.2,329.1,-0.7,1.8,2470.487,13.28,0.005,126.9
2021-06-13T03:34:03,42.805,6.029,0.006,-0.019,0.0,104.0,102.0,102.0,13.3,1505.2,328.3,-0.8,1.8,2470.522,13.28,0.019,162.5
2021-06-13T03:37:03,42.805,6.029,0.012,-0.029,-0.021,103.0,105.0,101.0,13.4,1505.2,329.5,-0.8,1.8,2470.501,13.28,0.031,157.5
2021-06-13T03:40:03,42.805,6.029,0.017,-0.023,0.003,103.0,104.0,101.0,13.4,1505.2,328.6,-0.7,1.8,2470.534,13.28,0.028,143.5
2021-06-13T03:43:03,42.805,6.029,0.013,-0.009,0.018,105.0,101.0,101.0,13.3,1505.2,326.8,-0.8,1.8,2470.498,13.28,0.015,124.7
2021-06-13T03:46:03,42.805,6.029,0.014,-0.009,-0.013,103.0,103.0,102.0,13.4,1505.2,330.2,-0.8,1.8,2470.478,13.28,0.016,122.7
2021-06-13T03:49:03,42.805,6.029,0.054,-0.032,-0.035,104.0,103.0,101.0,13.4,1505.2,324.7,-0.7,1.8,2470.534,13.28,0.062,120.7
2021-06-13T03:52:03,42.805,6.029,0.016,-0.017,0.034,102.0,105.0,102.0,13.3,1505.2,326.2,-0.8,1.8,2470.513,13.28,0.023,136.7
2021-06-13T03:55:03,42.805,6.029,0.014,-0.001,-0.029,105.0,103.0,101.0,13.4,1505.2,329.2,-0.8,1.8,2470.53,13.28,0.014,94.1
2021-06-13T03:58:03,42.805,6.029,0.026,-0.026,-0.025,103.0,104.0,101.0,13.4,1505.2,327.2,-0.8,1.8,2470.553,13.28,0.036,135.0
2021-06-13T04:04:03,42.805,6.029,0.008,-0.025,0.018,103.0,104.0,102.0,13.3,1505.2,325.4,-0.7,1.9,2470.546,13.28,0.026,162.3
2021-06-13T04:07:03,42.805,6.029,0.01,-0.011,0.0,103.0,104.0,102.0,13.4,1505.2,327.2,-0.8,1.8,2470.52,13.28,0.014,137.7
2021-06-13T04:10:03,42.805,6.029,0.011,-0.016,0.025,102.0,113.0,102.0,13.4,1505.2,327.0,-0.8,1.8,2470.503,13.28,0.019,145.5
2021-06-13T04:13:03,42.805,6.029,0.025,-0.033,0.01,103.0,103.0,102.0,13.3,1505.2,325.3,-0.7,1.8,2470.509,13.28,0.041,142.8
2021-06-13T04:16:03,42.805,6.029,-0.007,-0.008,0.0,103.0,106.0,101.0,13.4,1505.2,328.2,-0.7,1.8,2470.496,13.28,0.01,221.2
2021-06-13T04:19:03,42.805,6.029,0.028,-0.024,-0.021,103.0,104.0,102.0,13.4,1505.2,327.1,-0.7,1.8,2470.519,13.28,0.036,130.6
2021-06-13T04:22:03,42.805,6.029,0.003,-0.009,-0.017,104.0,104.0,102.0,13.4,1505.2,328.6,-0.7,1.8,2470.528,13.28,0.009,161.6
2021-06-13T04:25:03,42.805,6.029,0.019,-0.006,0.035,103.0,104.0,101.0,13.3,1505.2,327.5,-0.8,1.8,2470.522,13.28,0.019,107.5
2021-06-13T04:28:03,42.805,6.029,0.0,-0.008,-0.008,103.0,104.0,102.0,13.3,1505.2,329.3,-0.8,1.8,2470.544,13.28,0.008,180.0
2021-06-13T04:31:03,42.805,6.029,0.013,-0.003,0.005,103.0,104.0,101.0,13.4,1505.2,328.9,-0.8,1.8,2470.529,13.28,0.013,103.0
2021-06-13T04:34:03,42.805,6.029,0.014,-0.037,0.006,103.0,103.0,101.0,13.3,1505.2,329.3,-0.8,1.8,2470.521,13.28,0.039,159.3
2021-06-13T04:37:03,42.805,6.029,0.0,-0.017,-0.022,103.0,103.0,102.0,13.4,1505.2,327.5,-0.7,1.8,2470.527,13.28,0.017,180.0
2021-06-13T04:40:03,42.805,6.029,0.0,-0.023,0.017,104.0,104.0,103.0,13.3,1505.2,324.3,-0.8,1.8,2470.498,13.28,0.023,180.0
2021-06-13T04:43:03,42.805,6.029,0.01,-0.012,0.024,103.0,107.0,102.0,13.4,1505.2,328.3,-0.7,1.8,2470.535,13.28,0.015,140.2
2021-06-13T04:46:03,42.805,6.029,0.012,-0.023,0.003,103.0,104.0,100.0,13.4,1505.2,330.2,-0.7,1.8,2470.522,13.28,0.025,152.4
2021-06-13T04:49:03,42.805,6.029,0.012,0.004,0.003,104.0,104.0,101.0,13.4,1505.2,325.0,-0.7,1.8,2470.539,13.28,0.012,71.6
2021-06-13T04:52:03,42.805,6.029,0.019,-0.012,0.044,104.0,103.0,101.0,13.4,1505.2,328.6,-0.7,1.8,2470.497,13.28,0.022,122.3
2021-06-13T04:55:03,42.805,6.029,0.006,-0.006,-0.004,103.0,103.0,102.0,13.4,1505.2,329.9,-0.7,1.8,2470.522,13.28,0.008,135.0
2021-06-13T04:58:03,42.805,6.029,0.002,-0.027,0.009,102.0,104.0,102.0,13.4,1505.2,325.2,-0.8,1.8,2470.523,13.28,0.027,175.8
2021-06-13T05:04:03,42.805,6.029,0.013,-0.014,0.006,101.0,103.0,102.0,13.4,1505.2,325.4,-0.7,1.8,2470.529,13.28,0.019,137.1
2021-06-13T05:07:03,42.805,6.029,0.009,-0.031,-0.008,104.0,103.0,101.0,13.3,1505.2,326.3,-0.8,1.8,2470.529,13.28,0.032,163.8
2021-06-13T05:10:03,42.805,6.029,0.004,-0.016,0.02,102.0,103.0,102.0,13.3,1505.2,329.3,-0.7,1.8,2470.516,13.28,0.016,166.0
2021-06-13T05:13:03,42.805,6.029,0.015,-0.032,0.003,102.0,105.0,102.0,13.3,1505.2,324.8,-0.7,1.8,2470.552,13.28,0.035,154.9
2021-06-13T05:16:03,42.805,6.029,0.004,-0.035,-0.007,103.0,104.0,101.0,13.3,1505.2,328.7,-0.7,1.8,2470.54,13.28,0.035,173.5
2021-06-13T05:19:03,42.805,6.029,0.0,-0.032,-0.002,105.0,103.0,102.0,13.4,1505.2,327.1,-0.8,1.8,2470.524,13.28,0.032,180.0
2021-06-13T05:22:03,42.805,6.029,0.004,-0.013,-0.003,106.0,104.0,101.0,13.4,1505.2,330.0,-0.8,1.8,2470.564,13.28,0.013,162.9
2021-06-13T05:25:03,42.805,6.029,0.038,-0.022,-0.021,103.0,103.0,102.0,13.4,1505.2,329.6,-0.8,1.8,2470.561,13.28,0.043,120.1
2021-06-13T05:28:03,42.805,6.029,-0.004,-0.011,0.0,104.0,104.0,102.0,13.4,1505.2,329.4,-0.7,1.8,2470.53,13.28,0.011,200.0
2021-06-13T05:31:03,42.805,6.029,0.001,-0.014,-0.016,104.0,102.0,102.0,13.3,1505.2,327.0,-0.8,1.8,2470.511,13.28,0.014,175.9
2021-06-13T05:34:03,42.805,6.029,0.0,-0.014,-0.014,104.0,103.0,102.0,13.4,1505.2,327.1,-0.7,1.8,2470.565,13.28,0.014,180.0
2021-06-13T05:37:03,42.805,6.029,0.01,-0.014,-0.024,103.0,104.0,102.0,13.4,1505.2,330.0,-0.8,1.8,2470.535,13.28,0.017,144.5
2021-06-13T05:40:03,42.805,6.029,-0.008,-0.029,0.003,104.0,102.0,102.0,13.3,1505.2,325.5,-0.7,1.8,2470.499,13.28,0.03,195.4
2021-06-13T05:43:03,42.805,6.029,0.032,-0.027,0.004,105.0,103.0,101.0,13.3,1505.2,327.0,-0.8,1.8,2470.557,13.28,0.041,130.2
2021-06-13T05:46:03,42.805,6.029,0.01,0.006,-0.008,105.0,103.0,101.0,13.4,1505.2,328.1,-0.7,1.8,2470.542,13.28,0.011,59.0
2021-06-13T05:49:03,42.805,6.029,-0.007,-0.011,-0.019,104.0,104.0,101.0,13.3,1505.2,328.1,-0.7,1.8,2470.553,13.28,0.013,212.5
2021-06-13T05:52:03,42.805,6.029,0.004,-0.004,0.005,104.0,103.0,101.0,13.4,1505.2,326.4,-0.7,1.8,2470.53,13.28,0.005,135.0
2021-06-13T05:55:03,42.805,6.029,-0.005,0.006,0.021,104.0,104.0,102.0,13.4,1505.2,326.4,-0.8,1.8,2470.539,13.28,0.007,320.2
2021-06-13T05:58:03,42.805,6.029,0.013,-0.028,-0.025,102.0,104.0,101.0,13.4,1505.2,327.9,-0.7,1.8,2470.581,13.28,0.03,155.1
2021-06-13T06:04:03,42.805,6.029,0.004,-0.009,0.009,104.0,104.0,101.0,13.4,1505.2,326.4,-0.8,1.8,2470.589,13.28,0.009,156.0
2021-06-13T06:07:03,42.805,6.029,0.028,-0.017,-0.032,105.0,104.0,102.0,13.3,1505.2,327.3,-0.8,1.8,2470.576,13.28,0.032,121.3
2021-06-13T06:10:03,42.805,6.029,0.03,-0.039,0.002,104.0,104.0,101.0,13.3,1505.2,328.0,-0.8,1.8,2470.562,13.28,0.049,142.4
2021-06-13T06:13:03,42.805,6.029,0.023,-0.016,0.0,104.0,104.0,101.0,13.4,1505.2,325.3,-0.8,1.8,2470.565,13.28,0.028,124.8
2021-06-13T06:16:03,42.805,6.029,-0.025,-0.011,-0.002,103.0,104.0,102.0,13.4,1505.2,328.6,-0.7,1.8,2470.562,13.28,0.027,246.3
2021-06-13T06:19:03,42.805,6.029,0.009,-0.013,0.022,104.0,104.0,101.0,13.4,1505.2,326.2,-0.8,1.8,2470.554,13.28,0.015,145.3
2021-06-13T06:22:03,42.805,6.029,0.012,-0.029,0.017,104.0,103.0,102.0,13.4,1505.2,324.4,-0.8,1.9,2470.598,13.28,0.031,157.5
2021-06-13T06:25:03,42.805,6.029,0.001,-0.034,0.011,104.0,104.0,101.0,13.4,1505.2,329.1,-0.8,1.8,2470.629,13.28,0.034,178.3
2021-06-13T06:28:03,42.805,6.029,-0.016,-0.019,0.026,103.0,103.0,102.0,13.4,1505.2,326.3,-0.8,1.9,2470.555,13.28,0.024,220.1
2021-06-13T06:31:03,42.805,6.029,-0.01,-0.018,0.005,104.0,103.0,102.0,13.3,1505.2,324.9,-0.8,1.8,2470.511,13.28,0.02,209.1
2021-06-13T06:34:03,42.805,6.029,0.021,-0.036,-0.004,104.0,103.0,102.0,13.4,1505.2,328.8,-0.7,1.8,2470.57,13.28,0.041,149.7
2021-06-13T06:37:03,42.805,6.029,-0.008,-0.022,0.007,104.0,105.0,102.0,13.4,1505.2,328.3,-0.7,1.8,2470.565,13.28,0.023,200.0
2021-06-13T06:40:03,42.805,6.029,0.014,-0.011,0.015,104.0,104.0,102.0,13.3,1505.2,328.1,-0.7,1.8,2470.547,13.28,0.017,128.2
2021-06-13T06:43:03,42.805,6.029,0.012,-0.013,0.012,103.0,103.0,103.0,13.4,1505.2,328.9,-0.8,1.8,2470.56,13.28,0.017,137.3
2021-06-13T06:46:03,42.805,6.029,0.001,-0.013,0.001,104.0,104.0,102.0,13.4,1505.2,325.4,-0.8,1.9,2470.565,13.28,0.013,175.6
2021-06-13T06:49:03,42.805,6.029,-0.007,-0.013,-0.004,105.0,103.0,101.0,13.4,1505.2,327.5,-0.7,1.8,2470.566,13.28,0.014,208.3
2021-06-13T06:52:03,42.805,6.029,-0.003,-0.043,-0.012,105.0,103.0,102.0,13.3,1505.2,329.9,-0.8,1.8,2470.565,13.28,0.043,184.0
2021-06-13T06:55:03,42.805,6.029,0.0,-0.033,0.008,104.0,104.0,101.0,13.4,1505.2,325.2,-0.8,1.9,2470.558,13.28,0.033,180.0
2021-06-13T06:58:03,42.805,6.029,-0.004,-0.02,0.001,104.0,103.0,102.0,13.4,1505.2,326.7,-0.7,1.8,2470.593,13.28,0.02,191.3
2021-06-13T07:04:03,42.805,6.029,0.001,-0.028,-0.015,104.0,104.0,102.0,13.3,1505.2,326.5,-0.8,1.8,2470.607,13.28,0.028,178.0
2021-06-13T07:07:03,42.805,6.029,-0.008,-0.017,-0.024,104.0,105.0,102.0,13.4,1505.2,327.4,-0.7,1.8,2470.624,13.28,0.018,205.2
2021-06-13T07:10:03,42.805,6.029,0.003,-0.013,0.022,103.0,105.0,101.0,13.4,1505.2,327.2,-0.8,1.8,2470.593,13.28,0.013,167.0
2021-06-13T07:13:03,42.805,6.029,0.015,-0.017,0.019,104.0,104.0,102.0,13.4,1505.2,326.1,-0.8,1.8,2470.584,13.28,0.022,138.6
2021-06-13T07:16:03,42.805,6.029,0.008,-0.029,-0.024,104.0,104.0,101.0,13.4,1505.2,329.4,-0.8,1.8,2470.612,13.28,0.03,164.6
2021-06-13T07:19:03,42.805,6.029,0.0,-0.01,0.02,103.0,105.0,102.0,13.3,1505.2,327.2,-0.8,1.8,2470.555,13.28,0.01,180.0
2021-06-13T07:22:03,42.805,6.029,0.008,-0.031,-0.002,109.0,104.0,102.0,13.4,1505.2,329.0,-0.8,1.8,2470.614,13.28,0.032,165.5
2021-06-13T07:25:03,42.805,6.029,0.004,-0.026,-0.002,103.0,104.0,101.0,13.4,1505.2,327.9,-0.8,1.8,2470.6,13.28,0.026,171.3
2021-06-13T07:28:03,42.805,6.029,-0.01,-0.009,0.024,103.0,104.0,102.0,13.3,1505.2,329.9,-0.7,1.8,2470.615,13.28,0.013,228.0
2021-06-13T07:31:03,42.805,6.029,-0.013,-0.021,0.003,103.0,103.0,102.0,13.4,1505.2,327.7,-0.8,1.8,2470.584,13.28,0.024,211.8
2021-06-13T07:34:03,42.805,6.029,0.009,-0.026,0.016,104.0,103.0,102.0,13.4,1505.2,328.6,-0.7,1.8,2470.594,13.28,0.027,160.9
2021-06-13T07:37:03,42.805,6.029,0.005,-0.033,0.006,102.0,104.0,102.0,13.4,1505.2,326.2,-0.7,1.8,2470.592,13.28,0.033,171.4
2021-06-13T07:40:03,42.805,6.029,0.006,-0.012,-0.019,104.0,105.0,102.0,13.3,1505.2,328.7,-0.7,1.8,2470.593,13.28,0.013,153.4
2021-06-13T07:43:03,42.805,6.029,-0.007,-0.015,0.01,104.0,104.0,102.0,13.4,1505.2,329.2,-0.8,1.8,2470.606,13.28,0.016,205.0
2021-06-13T07:46:03,42.805,6.029,-0.008,-0.043,0.013,104.0,104.0,102.0,13.3,1505.2,327.3,-0.7,1.8,2470.605,13.28,0.043,190.5
2021-06-13T07:49:03,42.805,6.029,-0.024,-0.037,0.004,103.0,104.0,102.0,13.3,1505.2,327.7,-0.7,1.8,2470.614,13.28,0.044,213.0
2021-06-13T07:52:03,42.805,6.029,0.019,-0.026,0.003,103.0,103.0,101.0,13.4,1505.2,325.0,-0.8,1.8,2470.625,13.28,0.032,143.8
2021-06-13T07:55:03,42.805,6.029,-0.002,-0.001,0.026,105.0,104.0,102.0,13.4,1505.2,326.4,-0.7,1.9,2470.597,13.28,0.002,243.4
2021-06-13T07:58:03,42.805,6.029,-0.008,-0.012,-0.002,104.0,104.0,102.0,13.4,1505.2,326.5,-0.8,1.8,2470.596,13.28,0.014,213.7
2021-06-13T08:04:03,42.805,6.029,0.0,-0.03,0.008,105.0,103.0,102.0,13.4,1505.2,325.2,-0.7,1.8,2470.61,13.28,0.03,180.0
2021-06-13T08:07:03,42.805,6.029,-0.001,-0.032,0.012,105.0,104.0,101.0,13.4,1505.2,329.9,-0.7,1.9,2470.656,13.28,0.032,181.8
2021-06-13T08:10:03,42.805,6.029,0.018,-0.026,0.001,103.0,104.0,102.0,13.4,1505.2,327.0,-0.7,1.8,2470.604,13.28,0.031,145.3
2021-06-13T08:13:03,42.805,6.029,-0.015,-0.045,-0.047,105.0,104.0,102.0,13.3,1505.2,329.7,-0.7,1.8,2470.604,13.28,0.047,198.4
2021-06-13T08:16:03,42.805,6.029,0.009,-0.015,0.004,104.0,103.0,101.0,13.4,1505.2,326.4,-0.8,1.8,2470.599,13.28,0.017,149.0
2021-06-13T08:19:03,42.805,6.029,-0.006,-0.023,-0.017,105.0,103.0,103.0,13.3,1505.2,329.4,-0.8,1.8,2470.634,13.28,0.023,194.6
2021-06-13T08:22:03,42.805,6.029,0.006,-0.004,-0.013,104.0,103.0,101.0,13.3,1505.2,324.4,-0.8,1.8,2470.628,13.28,0.007,123.7
2021-06-13T08:25:03,42.805,6.029,0.003,-0.015,0.0,103.0,103.0,101.0,13.4,1505.2,325.7,-0.8,1.8,2470.617,13.28,0.015,168.7
2021-06-13T08:28:03,42.805,6.029,0.013,-0.028,0.011,106.0,105.0,101.0,13.4,1505.2,329.3,-0.8,1.8,2470.603,13.28,0.03,155.1
2021-06-13T08:31:03,42.805,6.029,-0.017,-0.031,-0.011,104.0,105.0,101.0,13.4,1505.2,326.2,-0.8,1.8,2470.648,13.28,0.035,208.7
2021-06-13T08:34:03,42.805,6.029,-0.005,-0.02,0.003,104.0,103.0,102.0,13.4,1505.2,328.1,-0.8,1.8,2470.588,13.28,0.02,194.0
2021-06-13T08:37:03,42.805,6.029,-0.005,-0.021,-0.033,103.0,104.0,101.0,13.3,1505.2,326.3,-0.8,1.8,2470.65,13.28,0.021,193.4
2021-06-13T08:40:03,42.805,6.029,0.005,-0.026,0.003,103.0,103.0,102.0,13.4,1505.2,329.1,-0.8,1.8,2470.606,13.28,0.026,169.1
2021-06-13T08:43:03,42.805,6.029,-0.008,-0.022,0.028,103.0,104.0,102.0,13.3,1505.2,328.7,-0.7,1.8,2470.632,13.28,0.023,200.0
2021-06-13T08:46:03,42.805,6.029,0.005,-0.026,0.008,104.0,103.0,102.0,13.3,1505.2,330.0,-0.8,1.9,2470.601,13.28,0.026,169.1
2021-06-13T08:49:03,42.805,6.029,0.002,-0.036,0.004,103.0,102.0,101.0,13.4,1505.2,327.4,-0.7,1.9,2470.584,13.28,0.036,176.8
2021-06-13T08:52:03,42.805,6.029,-0.001,-0.01,-0.005,103.0,103.0,101.0,13.4,1505.2,328.2,-0.7,1.8,2470.599,13.28,0.01,185.7
2021-06-13T08:55:03,42.805,6.029,0.018,-0.004,0.007,103.0,103.0,101.0,13.3,1505.2,327.3,-0.7,1.8,2470.606,13.28,0.018,102.5
2021-06-13T08:58:03,42.805,6.029,0.002,-0.02,-0.005,104.0,102.0,101.0,13.3,1505.2,328.2,-0.8,1.8,2470.614,13.28,0.02,174.3
2021-06-13T09:04:03,42.805,6.029,-0.019,-0.034,-0.012,102.0,108.0,101.0,13.3,1505.2,326.5,-0.8,1.8,2470.642,13.28,0.038,209.2
2021-06-13T09:07:03,42.805,6.029,0.022,0.0,-0.025,103.0,103.0,102.0,13.4,1505.2,328.6,-0.8,1.8,2470.569,13.28,0.022,90.0
2021-06-13T09:10:03,42.805,6.029,-0.006,-0.012,0.0,102.0,101.0,102.0,13.3,1505.2,327.7,-0.8,1.8,2470.599,13.28,0.013,206.6
2021-06-13T09:13:03,42.805,6.029,-0.019,-0.026,-0.004,102.0,102.0,101.0,13.4,1505.2,329.0,-0.7,1.8,2470.61,13.28,0.032,216.2
2021-06-13T09:16:03,42.805,6.029,-0.002,-0.026,-0.01,105.0,103.0,101.0,13.3,1505.2,325.3,-0.8,1.8,2470.546,13.28,0.026,184.4
2021-06-13T09:19:03,42.805,6.029,-0.001,-0.017,0.023,103.0,103.0,102.0,13.4,1505.2,327.1,-0.7,1.8,2470.614,13.28,0.017,183.4
2021-06-13T09:22:03,42.805,6.029,0.011,-0.018,0.01,103.0,103.0,101.0,13.4,1505.2,328.9,-0.8,1.8,2470.623,13.28,0.021,148.6
2021-06-13T09:25:03,42.805,6.029,-0.005,-0.02,-0.014,104.0,103.0,102.0,13.4,1505.2,324.9,-0.7,1.8,2470.589,13.28,0.02,194.0
2021-06-13T09:28:03,42.805,6.029,-0.007,-0.023,-0.014,103.0,104.0,101.0,13.3,1505.2,328.5,-0.8,1.8,2470.608,13.28,0.024,196.9
2021-06-13T09:31:03,42.805,6.029,0.0,-0.012,-0.003,103.0,103.0,101.0,13.4,1505.2,326.5,-0.8,1.8,2470.595,13.28,0.012,180.0
2021-06-13T09:34:03,42.805,6.029,-0.003,-0.004,-0.002,104.0,105.0,100.0,13.3,1505.2,329.0,-0.7,1.8,2470.586,13.28,0.005,216.9
2021-06-13T09:37:03,42.805,6.029,-0.024,-0.011,0.037,103.0,103.0,101.0,13.4,1505.2,326.0,-0.8,1.9,2470.583,13.28,0.026,245.4
2021-06-13T09:40:03,42.805,6.029,-0.014,0.001,-0.01,103.0,102.0,102.0,13.4,1505.2,328.4,-0.7,1.8,2470.571,13.28,0.014,274.1
2021-06-13T09:43:03,42.805,6.029,0.0,-0.007,0.021,105.0,103.0,101.0,13.3,1505.2,326.2,-0.7,1.8,2470.578,13.28,0.007,180.0
2021-06-13T09:46:03,42.805,6.029,-0.005,-0.022,0.01,104.0,104.0,101.0,13.3,1505.2,328.5,-0.8,1.8,2470.568,13.28,0.022,192.8
2021-06-13T09:49:03,42.805,6.029,0.017,-0.025,-0.01,104.0,106.0,101.0,13.4,1505.2,329.4,-0.8,1.8,2470.581,13.28,0.03,145.8
2021-06-13T09:52:03,42.805,6.029,-0.002,-0.008,0.014,103.0,103.0,101.0,13.4,1505.2,325.1,-0.7,1.8,2470.562,13.28,0.008,194.0
2021-06-13T09:55:03,42.805,6.029,0.011,-0.011,-0.014,103.0,102.0,101.0,13.4,1505.2,327.5,-0.7,1.8,2470.571,13.28,0.015,135.0